Overview Statistics Trail Chart Weather Telemetry Raw packets
 

This is the latest recevied weather packets stored in our database for station/object KB1WCR. If no packets are shown the sender has not sent any weather packets the latest 10 day(s).

<< 41 42 43 44 45 46 47 >>
Time Temp. Humidity Pressure Rain* Wind** Luminosity Snow
1788127653 22.22° C 75% 1014.7 hPa 0 mm - 38 W/m² -
1788127352 22.22° C 75% 1015.1 hPa 0 mm - 41 W/m² -
1788127050 22.22° C 75% 1014.9 hPa 0 mm - 46 W/m² -
1788126745 22.22° C 75% 1015.1 hPa 0 mm - 54 W/m² -
1788126441 22.22° C 76% 1015 hPa 0 mm - 82 W/m² -
1788126140 22.22° C 76% 1015 hPa 0 mm - 75 W/m² -
1788125839 22.22° C 77% 1014.9 hPa 0 mm - 69 W/m² -
1788125540 22.22° C 77% 1015.2 hPa 0 mm - 67 W/m² -
1788125236 22.22° C 77% 1014.9 hPa 0 mm - 69 W/m² -
1788124931 22.78° C 78% 1014.9 hPa 0 mm - 69 W/m² -
1788124626 22.78° C 78% 1015.2 hPa 0 mm - 93 W/m² -
1788124325 22.78° C 77% 1015.2 hPa 0 mm - 97 W/m² -
1788124021 22.78° C 78% 1015.2 hPa 0 mm - 85 W/m² -
1788123720 22.78° C 76% 1015.2 hPa 0 mm - 97 W/m² -
1788123417 23.33° C 77% 1015.3 hPa 0 mm - 163 W/m² -
1788123113 22.78° C 77% 1015.1 hPa 0 mm - 143 W/m² -
1788122813 23.33° C 77% 1015.1 hPa 0 mm - 121 W/m² -
1788122511 22.78° C 78% 1015.2 hPa 0 mm - 171 W/m² -
1788122208 22.78° C 81% 1015.2 hPa 0 mm - 175 W/m² -
1788121904 22.22° C 83% 1015.2 hPa 0 mm - 181 W/m² -
1788121603 22.22° C 83% 1015.3 hPa 0 mm - 129 W/m² -
1788121298 21.67° C 84% 1015.4 hPa 0 mm - 106 W/m² -
1788120998 21.67° C 85% 1015.4 hPa 0 mm - 98 W/m² -
1788120693 21.67° C 84% 1015.5 hPa 0 mm - 103 W/m² -
1788120388 21.67° C 85% 1015.5 hPa 0 mm - 78 W/m² -

* Rain latest hour (hover to see other rain measurements)
** Current wind speed in m/s (hover to see current wind gust speed)